Back to catalog

STARLINK-35778

AliveCommunicationsVLEO
NORAD 66973·PAYLOAD·🇺🇸 United States

Launched Dec 8, 2025 from Cape Canaveral Space Force Station

Loading…

Next Passes (next 24 hours)

TLE

FreshSource: CelesTrak SupGP

Epoch: Sep 14, 2026, 22:58 UTC

1 66973C 25288Q   26257.95743056  .00021864  00000+0  79175-3 0  2576
2 66973  43.0011  34.2436 0001401 273.8656 216.8685 15.27574149    19

Track STARLINK-35778 in real time with AllMySat

Download on the App Store